Torna al catalogo

CHECKMATE 8

AttivoMilitarePO
NORAD 56162·PAYLOAD·🇺🇸 United States

Lanciato Apr 2, 2023 da Vandenberg Space Force Base

Loading…

Prossimi Passaggi (prossime 24 ore)

TLE

AggiornatoSource: Space-Track

Epoca: Sep 14, 2026, 05:34 UTC

1 56162U 23050A   26257.23206502  .00000101  00000-0  79757-4 0  9993
2 56162  81.0058 346.3643 0007488  85.4787 274.7224 13.84970571174475

Traccia CHECKMATE 8 in tempo reale con AllMySat

Download on the App Store